When you browse on this site, cookies collect data to enhance your experience and personalize the content and advertising you see.
Visit our Privacy Policy to learn more. By continuing to use the site, you agree to this use of cookies and data.
  • en Belgique
  • Liste des pays
  • À 7 jours
  • Température de l'eau
  • Carte météo
  • Widgets météo
  • user-avatar
    Se connecter

    Météo par heure à Molepolole

    Ce jour, 18 Septembre, Mercredi

    Heure Température Précipitation Vent Pression Humidité
    00:00 +21°C° 0 mm 1 m/s 666 mmHg 32%
    01:00 +19°C° 0 mm 2 m/s 666 mmHg 33%
    02:00 +19°C° 0 mm 2 m/s 666 mmHg 37%
    03:00 +19°C° 0 mm 2 m/s 666 mmHg 37%
    04:00 +18°C° 0 mm 2 m/s 666 mmHg 37%
    05:00 +18°C° 0 mm 3 m/s 666 mmHg 37%
    06:00 +19°C° 0 mm 3 m/s 667 mmHg 36%
    07:00 +21°C° 0 mm 3 m/s 668 mmHg 35%
    08:00 +24°C° 0 mm 3 m/s 669 mmHg 33%
    09:00 +26°C° 0 mm 3 m/s 669 mmHg 29%
    10:00 +29°C° 0 mm 3 m/s 670 mmHg 24%
    11:00 +33°C° 0 mm 3 m/s 670 mmHg 20%
    12:00 +34°C° 0 mm 4 m/s 670 mmHg 17%
    13:00 +35°C° 0 mm 4 m/s 669 mmHg 15%
    14:00 +37°C° 0 mm 5 m/s 669 mmHg 12%
    15:00 +36°C° 0 mm 4 m/s 668 mmHg 12%
    16:00 +36°C° 0 mm 4 m/s 668 mmHg 13%
    17:00 +35°C° 0 mm 4 m/s 667 mmHg 13%
    18:00 +31°C° 0 mm 3 m/s 667 mmHg 17%
    19:00 +27°C° 0 mm 2 m/s 667 mmHg 22%
    20:00 +24°C° 0 mm 1 m/s 666 mmHg 27%
    21:00 +23°C° 0 mm 1 m/s 666 mmHg 27%
    22:00 +23°C° 0 mm 1 m/s 667 mmHg 27%
    23:00 +22°C° 0 mm 1 m/s 667 mmHg 27%

    Demain, 19 Septembre, Jeudi

    Heure Température Précipitation Vent Pression Humidité
    00:00 +21°C° 0 mm 2 m/s 667 mmHg 28%
    01:00 +20°C° 0 mm 2 m/s 667 mmHg 29%
    02:00 +20°C° 0 mm 3 m/s 667 mmHg 29%
    03:00 +19°C° 0 mm 3 m/s 667 mmHg 31%
    04:00 +18°C° 0 mm 2 m/s 667 mmHg 33%
    05:00 +17°C° 0 mm 2 m/s 667 mmHg 35%
    06:00 +19°C° 0 mm 3 m/s 668 mmHg 32%
    07:00 +21°C° 0 mm 3 m/s 668 mmHg 28%
    08:00 +23°C° 0 mm 4 m/s 669 mmHg 25%
    09:00 +26°C° 0 mm 5 m/s 670 mmHg 20%
    10:00 +29°C° 0 mm 6 m/s 670 mmHg 15%
    11:00 +33°C° 0 mm 7 m/s 671 mmHg 11%
    12:00 +34°C° 0 mm 7 m/s 670 mmHg 10%
    13:00 +35°C° 0 mm 7 m/s 669 mmHg 10%
    14:00 +36°C° 0 mm 7 m/s 669 mmHg 9%
    15:00 +36°C° 0 mm 7 m/s 668 mmHg 9%
    16:00 +35°C° 0 mm 7 m/s 668 mmHg 10%
    17:00 +34°C° 0 mm 7 m/s 668 mmHg 10%
    18:00 +32°C° 0 mm 6 m/s 668 mmHg 13%
    19:00 +28°C° 0 mm 6 m/s 667 mmHg 15%
    20:00 +26°C° 0 mm 5 m/s 667 mmHg 17%
    21:00 +25°C° 0 mm 5 m/s 667 mmHg 20%
    22:00 +23°C° 0 mm 5 m/s 668 mmHg 22%
    23:00 +22°C° 0 mm 5 m/s 668 mmHg 25%

    Après-demain, 20 Septembre, Vendredi

    Heure Température Précipitation Vent Pression Humidité
    00:00 +20°C° 0 mm 4 m/s 668 mmHg 31%
    01:00 +19°C° 0 mm 4 m/s 667 mmHg 36%
    02:00 +18°C° 0 mm 3 m/s 667 mmHg 42%
    03:00 +17°C° 0 mm 3 m/s 667 mmHg 45%
    04:00 +16°C° 0 mm 3 m/s 667 mmHg 49%
    05:00 +16°C° 0 mm 3 m/s 667 mmHg 52%
    06:00 +17°C° 0 mm 4 m/s 668 mmHg 47%
    07:00 +19°C° 0 mm 5 m/s 669 mmHg 42%
    08:00 +20°C° 0 mm 6 m/s 669 mmHg 38%
    09:00 +23°C° 0 mm 6 m/s 670 mmHg 32%
    10:00 +26°C° 0 mm 6 m/s 670 mmHg 26%
    11:00 +29°C° 0 mm 6 m/s 670 mmHg 21%
    12:00 +30°C° 0 mm 7 m/s 670 mmHg 17%
    13:00 +33°C° 0 mm 7 m/s 669 mmHg 14%
    14:00 +35°C° 0 mm 7 m/s 668 mmHg 10%
    15:00 +34°C° 0 mm 7 m/s 668 mmHg 10%
    16:00 +34°C° 0 mm 7 m/s 667 mmHg 10%
    17:00 +34°C° 0 mm 7 m/s 667 mmHg 10%
    18:00 +30°C° 0 mm 6 m/s 667 mmHg 13%
    19:00 +27°C° 0 mm 5 m/s 666 mmHg 16%
    20:00 +23°C° 0 mm 4 m/s 666 mmHg 19%
    21:00 +23°C° 0 mm 4 m/s 666 mmHg 21%
    22:00 +22°C° 0 mm 4 m/s 666 mmHg 22%
    23:00 +21°C° 0 mm 4 m/s 666 mmHg 24%

    21 Septembre, Samedi

    Heure Température Précipitation Vent Pression Humidité
    00:00 +20°C° 0 mm 4 m/s 666 mmHg 27%
    01:00 +19°C° 0 mm 4 m/s 666 mmHg 30%
    02:00 +18°C° 0 mm 3 m/s 665 mmHg 34%
    03:00 +17°C° 0 mm 3 m/s 665 mmHg 39%
    04:00 +14°C° 0 mm 3 m/s 665 mmHg 45%
    05:00 +14°C° 0 mm 2 m/s 664 mmHg 50%
    06:00 +16°C° 0 mm 3 m/s 665 mmHg 47%
    07:00 +18°C° 0 mm 4 m/s 666 mmHg 43%
    08:00 +20°C° 0 mm 5 m/s 666 mmHg 40%
    09:00 +23°C° 0 mm 5 m/s 667 mmHg 32%
    10:00 +27°C° 0 mm 5 m/s 667 mmHg 24%
    11:00 +30°C° 0 mm 6 m/s 668 mmHg 16%
    12:00 +32°C° 0 mm 5 m/s 667 mmHg 14%
    13:00 +34°C° 0 mm 4 m/s 666 mmHg 11%
    14:00 +35°C° 0 mm 3 m/s 665 mmHg 9%
    15:00 +35°C° 0 mm 3 m/s 665 mmHg 9%
    16:00 +35°C° 0 mm 3 m/s 665 mmHg 8%
    17:00 +35°C° 0 mm 3 m/s 664 mmHg 8%
    18:00 +30°C° 0 mm 3 m/s 663 mmHg 10%
    19:00 +26°C° 0 mm 2 m/s 663 mmHg 13%
    20:00 +23°C° 0 mm 2 m/s 662 mmHg 16%
    21:00 +21°C° 0 mm 2 m/s 662 mmHg 17%
    22:00 +20°C° 0 mm 3 m/s 662 mmHg 19%
    23:00 +20°C° 0 mm 3 m/s 662 mmHg 21%

    22 Septembre, Dimanche

    Heure Température Précipitation Vent Pression Humidité
    00:00 +19°C° 0 mm 3 m/s 662 mmHg 22%
    01:00 +19°C° 0 mm 3 m/s 662 mmHg 24%
    02:00 +19°C° 0 mm 4 m/s 662 mmHg 26%
    03:00 +18°C° 0 mm 4 m/s 662 mmHg 29%
    04:00 +17°C° 0 mm 3 m/s 661 mmHg 32%
    05:00 +17°C° 0 mm 3 m/s 661 mmHg 36%
    06:00 +18°C° 0 mm 2 m/s 662 mmHg 34%
    07:00 +20°C° 0 mm 1 m/s 663 mmHg 32%
    08:00 +20°C° 0 mm 0 m/s 663 mmHg 30%
    09:00 +25°C° 0 mm 2 m/s 664 mmHg 25%
    10:00 +28°C° 0 mm 3 m/s 664 mmHg 20%
    11:00 +33°C° 0 mm 5 m/s 665 mmHg 14%
    12:00 +34°C° 0 mm 6 m/s 664 mmHg 12%
    13:00 +35°C° 0 mm 6 m/s 664 mmHg 9%
    14:00 +38°C° 0 mm 7 m/s 664 mmHg 7%
    15:00 +36°C° 0 mm 7 m/s 663 mmHg 7%
    16:00 +36°C° 0 mm 7 m/s 663 mmHg 7%
    17:00 +35°C° 0 mm 7 m/s 663 mmHg 7%
    18:00 +32°C° 0 mm 7 m/s 662 mmHg 13%
    19:00 +27°C° 0 mm 7 m/s 662 mmHg 20%
    20:00 +23°C° 0 mm 7 m/s 662 mmHg 26%
    21:00 +21°C° 0 mm 7 m/s 663 mmHg 24%
    22:00 +18°C° 0 mm 8 m/s 663 mmHg 21%
    23:00 +16°C° 0 mm 8 m/s 663 mmHg 19%

    23 Septembre, Lundi

    Heure Température Précipitation Vent Pression Humidité
    00:00 +14°C° 0 mm 7 m/s 663 mmHg 21%
    01:00 +13°C° 0 mm 6 m/s 663 mmHg 23%
    02:00 +12°C° 0 mm 5 m/s 663 mmHg 25%
    03:00 +9°C° 0 mm 5 m/s 663 mmHg 28%
    04:00 +8°C° 0 mm 4 m/s 663 mmHg 31%
    05:00 +7°C° 0 mm 4 m/s 663 mmHg 34%
    06:00 +8°C° 0 mm 5 m/s 664 mmHg 33%
    07:00 +9°C° 0 mm 5 m/s 665 mmHg 33%
    08:00 +10°C° 0 mm 6 m/s 666 mmHg 32%
    09:00 +14°C° 0 mm 6 m/s 666 mmHg 27%
    10:00 +17°C° 0 mm 6 m/s 667 mmHg 21%
    11:00 +21°C° 0 mm 6 m/s 667 mmHg 15%
    12:00 +23°C° 0 mm 6 m/s 667 mmHg 13%
    13:00 +24°C° 0 mm 6 m/s 667 mmHg 11%
    14:00 +27°C° 0 mm 6 m/s 666 mmHg 9%
    15:00 +27°C° 0 mm 6 m/s 666 mmHg 10%
    16:00 +26°C° 0 mm 6 m/s 665 mmHg 12%
    17:00 +26°C° 0 mm 6 m/s 665 mmHg 13%
    18:00 +22°C° 0 mm 5 m/s 665 mmHg 17%
    19:00 +19°C° 0 mm 5 m/s 665 mmHg 21%
    20:00 +17°C° 0 mm 4 m/s 665 mmHg 26%
    21:00 +15°C° 0 mm 4 m/s 665 mmHg 28%
    22:00 +14°C° 0 mm 4 m/s 665 mmHg 31%
    23:00 +13°C° 0 mm 4 m/s 666 mmHg 33%
    Voir plus